| time (UTC) | temp F | wind direction | speed knots | gust knots | rain 1hr in | rain 24hr in | rain mn in | humidity % | barometer mb |
| 20260504000012 | 56 | 292 | 0.0 | 1.7 | 0.00 | 0.00 | 0.00 | 48 | 1016.3 |
| 20260503235503 | 56 | 292 | 0.0 | 1.7 | 0.00 | 0.00 | 0.00 | 48 | 1016.2 |
| 20260503235003 | 57 | 292 | 0.0 | 0.0 | 0.00 | 0.00 | 0.00 | 44 | 1016.2 |
| 20260503234516 | 58 | 292 | 0.0 | 1.7 | 0.00 | 0.00 | 0.00 | 44 | 1016.2 |
| 20260503234007 | 59 | 292 | 0.0 | 1.7 | 0.00 | 0.00 | 0.00 | 38 | 1016.1 |
| 20260503233504 | 59 | 292 | 0.0 | 1.7 | 0.00 | 0.00 | 0.00 | 38 | 1016.1 |
| 20260503233008 | 59 | 292 | 0.0 | 2.6 | 0.00 | 0.00 | 0.00 | 39 | 1016.1 |
| 20260503232507 | 60 | 288 | 1.7 | 2.6 | 0.00 | 0.00 | 0.00 | 35 | 1016.1 |
| 20260503232007 | 60 | 293 | 0.0 | 3.5 | 0.00 | 0.00 | 0.00 | 35 | 1016.1 |
| 20260503231516 | 60 | 271 | 0.0 | 3.5 | 0.00 | 0.00 | 0.00 | 33 | 1016.0 |
| 20260503231006 | 60 | 251 | 1.7 | 3.5 | 0.00 | 0.00 | 0.00 | 34 | 1016.0 |
| 20260503230503 | 61 | 300 | 0.9 | 4.3 | 0.00 | 0.00 | 0.00 | 33 | 1016.0 |
| 20260503230008 | 61 | 306 | 1.7 | 4.3 | 0.00 | 0.00 | 0.00 | 33 | 1016.0 |
| 20260503225510 | 61 | 311 | 0.9 | 6.1 | 0.00 | 0.00 | 0.00 | 33 | 1016.0 |
| 20260503225009 | 61 | 286 | 0.0 | 6.1 | 0.00 | 0.00 | 0.00 | 32 | 1016.0 |
| 20260503224516 | 61 | 234 | 1.7 | 5.2 | 0.00 | 0.00 | 0.00 | 33 | 1016.1 |
| 20260503224003 | 61 | 290 | 1.7 | 5.2 | 0.00 | 0.00 | 0.00 | 32 | 1016.1 |
| 20260503223502 | 61 | 5 | 1.7 | 4.3 | 0.00 | 0.00 | 0.00 | 31 | 1016.1 |
| 20260503223004 | 61 | 278 | 1.7 | 4.3 | 0.00 | 0.00 | 0.00 | 32 | 1016.1 |
| 20260503222503 | 62 | 337 | 2.6 | 6.1 | 0.00 | 0.00 | 0.00 | 32 | 1016.1 |
| 20260503222003 | 61 | 326 | 1.7 | 6.1 | 0.00 | 0.00 | 0.00 | 31 | 1016.1 |
| 20260503221516 | 61 | 329 | 1.7 | 6.1 | 0.00 | 0.00 | 0.00 | 31 | 1016.1 |
| 20260503221006 | 62 | 265 | 2.6 | 6.1 | 0.00 | 0.00 | 0.00 | 30 | 1016.1 |
| 20260503220505 | 62 | 307 | 3.5 | 6.1 | 0.00 | 0.00 | 0.00 | 30 | 1016.1 |
| 20260503220005 | 62 | 288 | 1.7 | 6.1 | 0.00 | 0.00 | 0.00 | 31 | 1016.0 |
| 20260503215502 | 62 | 338 | 1.7 | 7.8 | 0.00 | 0.00 | 0.00 | 31 | 1016.0 |
| 20260503215002 | 62 | 296 | 3.5 | 8.7 | 0.00 | 0.00 | 0.00 | 30 | 1016.0 |
| 20260503214505 | 63 | 293 | 2.6 | 8.7 | 0.00 | 0.00 | 0.00 | 30 | 1016.0 |
| 20260503214004 | 63 | 313 | 2.6 | 4.3 | 0.00 | 0.00 | 0.00 | 30 | 1016.0 |
| 20260503213507 | 63 | 254 | 0.9 | 6.1 | 0.00 | 0.00 | 0.00 | 29 | 1016.0 |
| 20260503213014 | 63 | 232 | 2.6 | 6.1 | 0.00 | 0.00 | 0.00 | 28 | 1016.0 |
| 20260503212508 | 63 | 223 | 2.6 | 9.6 | 0.00 | 0.00 | 0.00 | 29 | 1016.0 |
| 20260503212004 | 63 | 288 | 4.3 | 9.6 | 0.00 | 0.00 | 0.00 | 29 | 1016.0 |
| 20260503211502 | 63 | 302 | 4.3 | 8.7 | 0.00 | 0.00 | 0.00 | 29 | 1016.0 |
| 20260503211006 | 64 | 275 | 2.6 | 7.8 | 0.00 | 0.00 | 0.00 | 28 | 1016.0 |
| 20260503210507 | 64 | 297 | 1.7 | 7.0 | 0.00 | 0.00 | 0.00 | 29 | 1016.0 |
| 20260503210010 | 64 | 297 | 3.5 | 10.4 | 0.00 | 0.00 | 0.00 | 29 | 1016.0 |
| 20260503205507 | 64 | 283 | 4.3 | 10.4 | 0.00 | 0.00 | 0.00 | 27 | 1016.0 |
| 20260503205007 | 64 | 313 | 2.6 | 6.1 | 0.00 | 0.00 | 0.00 | 28 | 1015.9 |
| 20260503204519 | 63 | 341 | 3.5 | 7.0 | 0.00 | 0.00 | 0.00 | 29 | 1015.8 |
| 20260503204001 | 64 | 275 | 3.5 | 8.7 | 0.00 | 0.00 | 0.00 | 27 | 1015.8 |
| 20260503203501 | 65 | 290 | 4.3 | 8.7 | 0.00 | 0.00 | 0.00 | 29 | 1015.9 |
| 20260503203006 | 64 | 330 | 1.7 | 9.6 | 0.00 | 0.00 | 0.00 | 27 | 1016.0 |
| 20260503202506 | 64 | 291 | 5.2 | 9.6 | 0.00 | 0.00 | 0.00 | 28 | 1016.0 |
| 20260503202006 | 64 | 311 | 4.3 | 10.4 | 0.00 | 0.00 | 0.00 | 27 | 1016.0 |
| 20260503201516 | 65 | 360 | 7.0 | 10.4 | 0.00 | 0.00 | 0.00 | 27 | 1016.1 |
| 20260503201006 | 64 | 280 | 3.5 | 8.7 | 0.00 | 0.00 | 0.00 | 27 | 1016.1 |
| 20260503200507 | 64 | 300 | 2.6 | 10.4 | 0.00 | 0.00 | 0.00 | 28 | 1016.1 |
| 20260503200006 | 64 | 301 | 4.3 | 10.4 | 0.00 | 0.00 | 0.00 | 30 | 1016.2 |
| 20260503195501 | 63 | 282 | 3.5 | 10.4 | 0.00 | 0.00 | 0.00 | 28 | 1016.2 |
| 20260503195004 | 64 | 328 | 6.1 | 10.4 | 0.00 | 0.00 | 0.00 | 29 | 1016.3 |
| 20260503194510 | 64 | 321 | 5.2 | 10.4 | 0.00 | 0.00 | 0.00 | 28 | 1016.3 |
| 20260503194008 | 65 | 304 | 5.2 | 9.6 | 0.00 | 0.00 | 0.00 | 27 | 1016.5 |
| 20260503193506 | 65 | 315 | 4.3 | 13.0 | 0.00 | 0.00 | 0.00 | 28 | 1016.5 |
| 20260503193020 | 64 | 313 | 3.5 | 13.0 | 0.00 | 0.00 | 0.00 | 29 | 1016.5 |
| 20260503192506 | 64 | 290 | 2.6 | 10.4 | 0.00 | 0.00 | 0.00 | 29 | 1016.6 |
| 20260503192003 | 64 | 311 | 7.0 | 11.3 | 0.00 | 0.00 | 0.00 | 29 | 1016.7 |
| 20260503191525 | 65 | 352 | 3.5 | 14.8 | 0.00 | 0.00 | 0.00 | 29 | 1016.7 |
| 20260503191003 | 65 | 275 | 3.5 | 14.8 | 0.00 | 0.00 | 0.00 | 28 | 1017.0 |
| 20260503190506 | 65 | 304 | 3.5 | 14.8 | 0.00 | 0.00 | 0.00 | 30 | 1017.0 |
| 20260503190015 | 64 | 340 | 3.5 | 14.8 | 0.00 | 0.00 | 0.00 | 29 | 1016.9 |
| 20260503185507 | 64 | 332 | 4.3 | 13.9 | 0.00 | 0.00 | 0.00 | 32 | 1017.0 |
| 20260503185007 | 64 | 273 | 5.2 | 11.3 | 0.00 | 0.00 | 0.00 | 30 | 1017.2 |
| 20260503184520 | 64 | 290 | 4.3 | 11.3 | 0.00 | 0.00 | 0.00 | 31 | 1017.2 |
| 20260503184010 | 62 | 302 | 3.5 | 9.6 | 0.00 | 0.00 | 0.00 | 31 | 1017.2 |
| 20260503183503 | 64 | 341 | 3.5 | 8.7 | 0.00 | 0.00 | 0.00 | 31 | 1017.1 |
| 20260503183009 | 64 | 240 | 3.5 | 8.7 | 0.00 | 0.00 | 0.00 | 32 | 1017.2 |
| 20260503182505 | 65 | 312 | 2.6 | 10.4 | 0.00 | 0.00 | 0.00 | 34 | 1017.2 |
| 20260503182007 | 63 | 300 | 3.5 | 10.4 | 0.00 | 0.00 | 0.00 | 31 | 1017.2 |
| 20260503181517 | 64 | 253 | 4.3 | 10.4 | 0.00 | 0.00 | 0.00 | 32 | 1017.2 |
| 20260503181011 | 63 | 279 | 3.5 | 10.4 | 0.00 | 0.00 | 0.00 | 32 | 1017.3 |
| 20260503180512 | 63 | 296 | 2.6 | 7.8 | 0.00 | 0.00 | 0.00 | 33 | 1017.2 |
| 20260503180031 | 63 | 279 | 4.3 | 10.4 | 0.00 | 0.00 | 0.00 | 33 | 1017.3 |
| 20260503175503 | 61 | 305 | 3.5 | 13.9 | 0.00 | 0.00 | 0.00 | 35 | 1017.3 |
| 20260503175005 | 61 | 337 | 9.6 | 13.9 | 0.00 | 0.00 | 0.00 | 33 | 1017.3 |
| 20260503174514 | 61 | 300 | 4.3 | 13.0 | 0.00 | 0.00 | 0.00 | 35 | 1017.4 |
| 20260503174009 | 61 | 319 | 5.2 | 13.0 | 0.00 | 0.00 | 0.00 | 35 | 1017.6 |
| 20260503173512 | 61 | 294 | 5.2 | 11.3 | 0.00 | 0.00 | 0.00 | 33 | 1017.5 |
| 20260503173023 | 61 | 306 | 4.3 | 13.0 | 0.00 | 0.00 | 0.00 | 36 | 1017.5 |
| 20260503172510 | 60 | 300 | 5.2 | 13.0 | 0.00 | 0.00 | 0.00 | 35 | 1017.5 |
| 20260503172010 | 59 | 294 | 7.0 | 13.0 | 0.00 | 0.00 | 0.00 | 36 | 1017.6 |
| 20260503171518 | 60 | 12 | 7.0 | 13.0 | 0.00 | 0.00 | 0.00 | 35 | 1017.5 |
| 20260503171005 | 60 | 313 | 6.1 | 11.3 | 0.00 | 0.00 | 0.00 | 35 | 1017.6 |
| 20260503170507 | 59 | 74 | 3.5 | 12.2 | 0.00 | 0.00 | 0.00 | 36 | 1017.7 |
| 20260503151006 | 57 | 327 | 5.2 | 14.8 | 0.00 | 0.01 | 0.00 | 41 | 1018.0 |
| 20260503150506 | 57 | 283 | 6.1 | 13.9 | 0.00 | 0.01 | 0.00 | 40 | 1018.0 |
| 20260503131007 | 53 | 316 | 3.5 | 11.3 | 0.00 | 0.01 | 0.00 | 48 | 1017.5 |
| 20260503130507 | 53 | 277 | 6.1 | 11.3 | 0.00 | 0.01 | 0.00 | 46 | 1017.6 |
| 20260503110507 | 51 | 282 | 4.3 | 12.2 | 0.00 | 0.01 | 0.00 | 48 | 1016.3 |
| 20260503090507 | 53 | 333 | 1.7 | 7.0 | 0.00 | 0.01 | 0.00 | 56 | 1014.1 |
| 20260503081527 | 53 | 315 | 3.5 | 9.6 | 0.00 | 0.01 | 0.00 | 61 | 1013.7 |
| 20260503081004 | 52 | 316 | 1.7 | 7.0 | 0.00 | 0.01 | 0.00 | 62 | 1013.5 |
| 20260503080506 | 52 | 346 | 2.6 | 7.0 | 0.00 | 0.01 | 0.00 | 61 | 1013.4 |
| 20260503072506 | 53 | 338 | 0.9 | 7.0 | 0.00 | 0.01 | 0.00 | 61 | 1013.0 |
| 20260503072010 | 53 | 311 | 2.6 | 7.0 | 0.00 | 0.01 | 0.00 | 62 | 1013.0 |
| 20260503071524 | 52 | 307 | 2.6 | 4.3 | 0.00 | 0.01 | 0.00 | 62 | 1012.9 |
| 20260503071009 | 51 | 340 | 1.7 | 4.3 | 0.00 | 0.01 | 0.00 | 64 | 1012.8 |
| 20260503070507 | 51 | 299 | 0.9 | 1.7 | 0.00 | 0.01 | 0.00 | 64 | 1012.8 |
| 20260503055009 | 50 | 294 | 0.0 | 1.7 | 0.00 | 0.01 | 0.00 | 68 | 1012.2 |
| 20260503054536 | 50 | 304 | 0.9 | 1.7 | 0.00 | 0.01 | 0.00 | 67 | 1012.4 |
| 20260503054010 | 51 | 298 | 0.9 | 1.7 | 0.00 | 0.01 | 0.00 | 66 | 1012.4 |
| 20260503053508 | 50 | 296 | 0.9 | 1.7 | 0.00 | 0.01 | 0.00 | 67 | 1012.4 |
| 20260503053031 | 50 | 299 | 0.9 | 1.7 | 0.00 | 0.01 | 0.00 | 66 | 1012.6 |
| 20260503052509 | 51 | 302 | 0.0 | 1.7 | 0.00 | 0.01 | 0.00 | 65 | 1012.5 |
| 20260503052011 | 51 | 301 | 0.0 | 1.7 | 0.00 | 0.01 | 0.00 | 64 | 1012.7 |
| 20260503051525 | 52 | 352 | 0.0 | 2.6 | 0.00 | 0.01 | 0.00 | 63 | 1012.7 |
| 20260503051008 | 52 | 304 | 0.9 | 2.6 | 0.00 | 0.01 | 0.00 | 62 | 1012.7 |
| 20260503050512 | 52 | 298 | 0.9 | 1.7 | 0.00 | 0.01 | 0.00 | 62 | 1012.5 |
| 20260503050029 | 53 | 294 | 0.9 | 2.6 | 0.00 | 0.01 | 0.00 | 62 | 1012.6 |
| 20260503045510 | 53 | 304 | 0.9 | 2.6 | 0.00 | 0.01 | 0.00 | 60 | 1012.6 |
| 20260503045011 | 53 | 327 | 0.9 | 2.6 | 0.00 | 0.01 | 0.00 | 60 | 1012.6 |
| 20260503044522 | 53 | 320 | 0.9 | 2.6 | 0.00 | 0.01 | 0.00 | 61 | 1012.7 |
| 20260503044010 | 54 | 325 | 0.9 | 2.6 | 0.00 | 0.01 | 0.00 | 60 | 1012.7 |
| 20260503043509 | 54 | 325 | 0.0 | 2.6 | 0.00 | 0.01 | 0.00 | 60 | 1012.7 |
| 20260503043039 | 54 | 300 | 0.9 | 2.6 | 0.00 | 0.01 | 0.00 | 60 | 1012.8 |
| 20260503042515 | 54 | 319 | 0.9 | 2.6 | 0.00 | 0.01 | 0.00 | 60 | 1012.7 |
| 20260503042012 | 54 | 323 | 0.9 | 2.6 | 0.00 | 0.01 | 0.00 | 60 | 1012.8 |
| 20260503041530 | 54 | 328 | 0.0 | 2.6 | 0.00 | 0.01 | 0.00 | 61 | 1012.8 |
| 20260503041011 | 54 | 320 | 0.9 | 3.5 | 0.00 | 0.01 | 0.00 | 61 | 1012.8 |
| 20260503040504 | 54 | 319 | 0.9 | 3.5 | 0.00 | 0.01 | 0.00 | 61 | 1012.7 |
| 20260503040023 | 54 | 327 | 0.9 | 4.3 | 0.00 | 0.01 | 0.00 | 60 | 1012.8 |
| 20260503035508 | 54 | 316 | 1.7 | 4.3 | 0.00 | 0.01 | 0.01 | 60 | 1012.8 |
| 20260503035010 | 54 | 300 | 0.9 | 2.6 | 0.00 | 0.01 | 0.01 | 61 | 1012.8 |
| 20260503034526 | 54 | 324 | 0.9 | 1.7 | 0.00 | 0.01 | 0.01 | 61 | 1012.8 |
| 20260503034005 | 54 | 296 | 0.9 | 1.7 | 0.00 | 0.01 | 0.01 | 61 | 1012.8 |
| 20260503033506 | 54 | 298 | 0.9 | 1.7 | 0.00 | 0.01 | 0.01 | 1012.8 | |
| 20260503033020 | 54 | 309 | 0.0 | 1.7 | 0.00 | 0.01 | 0.01 | 60 | 1012.6 |
| 20260503032508 | 54 | 322 | 0.0 | 1.7 | 0.00 | 0.01 | 0.01 | 60 | 1012.5 |
| 20260503032009 | 55 | 5 | 0.9 | 3.5 | 0.00 | 0.01 | 0.01 | 60 | 1012.5 |
| 20260503031526 | 55 | 330 | 1.7 | 3.5 | 0.00 | 0.01 | 0.01 | 60 | 1012.5 |
| 20260503031010 | 55 | 307 | 0.0 | 3.5 | 0.00 | 0.01 | 0.01 | 61 | 1012.5 |
| 20260503030510 | 55 | 315 | 0.9 | 3.5 | 0.00 | 0.01 | 0.01 | 60 | 1012.5 |
| 20260503030028 | 55 | 333 | 0.9 | 2.6 | 0.00 | 0.01 | 0.01 | 60 | 1012.6 |
| 20260503025507 | 55 | 317 | 0.0 | 2.6 | 0.00 | 0.01 | 0.01 | 60 | 1012.6 |
| 20260503025008 | 55 | 309 | 0.9 | 2.6 | 0.00 | 0.01 | 0.01 | 59 | 1012.8 |
| 20260503024526 | 55 | 298 | 0.0 | 3.5 | 0.00 | 0.01 | 0.01 | 59 | 1012.9 |
| 20260503024009 | 55 | 296 | 0.9 | 3.5 | 0.00 | 0.01 | 0.01 | 59 | 1012.8 |
| 20260503023512 | 55 | 315 | 0.9 | 2.6 | 0.00 | 0.01 | 0.01 | 59 | 1012.8 |
| 20260503023027 | 55 | 313 | 0.9 | 1.7 | 0.00 | 0.01 | 0.01 | 58 | 1012.8 |
| 20260503022507 | 55 | 306 | 0.9 | 3.5 | 0.00 | 0.01 | 0.01 | 58 | 1012.7 |
| 20260503022011 | 55 | 327 | 0.9 | 3.5 | 0.00 | 0.01 | 0.01 | 57 | 1012.7 |
| 20260503021535 | 55 | 333 | 1.7 | 3.5 | 0.00 | 0.01 | 0.01 | 57 | 1012.8 |
| 20260503021006 | 55 | 317 | 1.7 | 3.5 | 0.00 | 0.01 | 0.01 | 57 | 1012.6 |
| 20260503020508 | 55 | 323 | 0.9 | 3.5 | 0.00 | 0.01 | 0.01 | 58 | 1012.7 |
| 20260503020024 | 55 | 334 | 0.9 | 3.5 | 0.00 | 0.01 | 0.01 | 58 | 1012.6 |
| 20260503015516 | 55 | 352 | 0.0 | 2.6 | 0.00 | 0.01 | 0.01 | 58 | 1012.7 |
| 20260503015013 | 55 | 5 | 0.9 | 2.6 | 0.00 | 0.01 | 0.01 | 57 | 1012.6 |
| 20260503014525 | 55 | 319 | 1.7 | 3.5 | 0.00 | 0.01 | 0.01 | 56 | 1012.7 |
| 20260503014011 | 55 | 322 | 1.7 | 3.5 | 0.00 | 0.01 | 0.01 | 56 | 1012.5 |
| 20260503013507 | 55 | 342 | 1.7 | 3.5 | 0.00 | 0.01 | 0.01 | 55 | 1012.6 |
| 20260503013018 | 55 | 319 | 1.7 | 3.5 | 0.00 | 0.01 | 0.01 | 55 | 1012.4 |
| 20260503012509 | 55 | 307 | 0.9 | 3.5 | 0.00 | 0.01 | 0.01 | 54 | 1012.3 |
| 20260503012010 | 56 | 305 | 0.9 | 7.0 | 0.00 | 0.01 | 0.01 | 55 | 1012.2 |
| 20260503011528 | 55 | 31 | 1.7 | 7.0 | 0.00 | 0.01 | 0.01 | 53 | 1012.1 |
| 20260503011010 | 55 | 25 | 0.9 | 5.2 | 0.00 | 0.01 | 0.01 | 53 | 1012.1 |
| 20260503010511 | 56 | 319 | 2.6 | 5.2 | 0.00 | 0.01 | 0.01 | 52 | 1012.2 |
| 20260503010029 | 56 | 338 | 0.9 | 3.5 | 0.00 | 0.01 | 0.01 | 1012.4 | |
| 20260503005508 | 56 | 350 | 0.9 | 6.1 | 0.00 | 0.01 | 0.01 | 1012.4 | |
| 20260503005013 | 56 | 323 | 2.6 | 6.1 | 0.00 | 0.01 | 0.01 | 53 | 1012.2 |
| 20260503004558 | 56 | 335 | 0.0 | 4.3 | 0.00 | 0.01 | 0.01 | 53 | 1012.2 |
| 20260503004009 | 56 | 35 | 1.7 | 5.2 | 0.00 | 0.01 | 0.01 | 51 | 1012.1 |
| 20260503003509 | 56 | 57 | 0.9 | 5.2 | 0.00 | 0.01 | 0.01 | 51 | 1012.0 |
| 20260503003039 | 56 | 331 | 1.7 | 5.2 | 0.00 | 0.01 | 0.01 | 51 | 1012.0 |
| 20260503002508 | 55 | 331 | 2.6 | 5.2 | 0.00 | 0.01 | 0.01 | 53 | 1011.9 |
| 20260503002010 | 55 | 305 | 1.7 | 4.3 | 0.00 | 0.01 | 0.01 | 53 | 1011.9 |
| 20260503001516 | 55 | 352 | 1.7 | 6.1 | 0.00 | 0.01 | 0.01 | 53 | 1011.8 |
| 20260503001006 | 55 | 317 | 1.7 | 7.8 | 0.00 | 0.01 | 0.01 | 53 | 1011.8 |
| 20260503000509 | 56 | 15 | 2.6 | 7.8 | 0.00 | 0.01 | 0.01 | 53 | 1011.6 |